[[{"header":{"parameterUnit":"m.s-1","parameterCategory":1,"la1":30.2991,"la2":30.254,"lo1":-89.0895,"lo2":-89.0444,"dy":0.0017,"dx":0.0017,"nx":28,"ny":28,"refTime":"2023-10-14T21:00:00:Z","depth":0,"parameterNumber":2,"parameterNumberName":"U-component_of_WINDS"},"data":[0,0,0,0,0,0,0,0,0,0,0,0,0,0,0,0,0,0,0,0,0,0,0,0,0,0,0,0,0,0,0,0,0,0,0,0,0,0,0,0,0,0,0,0,0,0,0,0,0,0,0,0,0,0,0,0,0,0,3.6438,3.6438,0,3.6461,3.6461,3.6462,3.6425,3.6424,3.6423,3.6421,3.6447,3.6449,3.645,0,0,0,0,0,0,0,0,0,0,0,0,0,3.6366,3.6368,3.6438,3.6438,3.6438,3.6461,3.6461,3.6462,3.6425,3.6424,3.6422,3.6421,3.6446,3.6448,3.6451,0,0,0,0,0,0,0,0,0,0,0,0,0,3.6394,3.6368,3.6438,3.6423,3.6422,3.6461,3.6461,3.6462,3.6426,3.6424,3.6422,3.642,3.6445,3.6448,3.6451,3.6506,0,0,3.6459,3.6461,0,0,0,0,0,0,0,0,3.6393,3.6397,3.6425,3.6424,3.6423,3.6438,3.6445,3.6477,3.6426,3.6424,3.6421,3.6419,3.6446,3.6448,3.6457,3.6507,3.6508,3.646,3.6461,3.6463,3.6463,0,0,0,0,0,0,0,3.6391,3.6396,3.6447,3.6425,3.6424,3.6417,3.6418,3.6451,3.6445,3.6424,3.6422,3.6425,3.6445,3.6454,3.6457,3.6509,3.646,3.6462,3.6464,3.6465,3.661,3.6612,0,0,0,0,0,0,3.639,3.6394,3.6446,3.6448,3.6403,3.6419,3.6421,3.6435,3.6445,3.6444,3.6426,3.6423,3.645,3.6454,3.6458,3.6526,3.6463,3.6465,3.6467,3.6608,3.6611,3.6613,0,0,0,0,0,0,3.6389,3.6395,3.6445,3.642,3.6426,3.6423,3.6438,3.6437,3.6446,3.6446,3.6446,3.6437,3.6449,3.6454,3.6495,3.6526,3.6466,3.6469,3.6605,3.6609,3.6612,3.6661,0,0,0,0,0,0,3.6387,3.6395,3.6415,3.6421,3.6428,3.6481,3.644,3.6438,3.6451,3.6447,3.6456,3.6456,3.6448,3.6491,3.6498,3.6529,3.6471,3.6603,3.6607,3.6611,3.6656,3.6665,3.6673,0,0,0,0,0,3.6384,3.6427,3.6416,3.6422,3.6452,3.6483,3.6487,3.6476,3.6453,3.6474,3.6475,3.6456,3.6522,3.6496,3.6503,3.6535,3.6601,3.6606,3.661,3.6653,3.6664,3.6673,0,0,0,0,0,0,3.6424,3.6427,3.6415,3.646,3.6472,3.6477,3.6502,3.6487,3.6506,3.6501,3.6488,3.649,3.6535,3.6539,3.651,3.6591,3.6558,3.6564,3.6587,3.6598,3.6606,3.6604,3.6473,0,0,0,0,0,3.6438,3.6461,3.6464,3.6504,3.651,3.6505,3.6518,3.651,3.6521,3.6526,3.6529,3.6542,3.6566,3.6582,3.6603,3.6657,3.666,3.6683,3.6691,3.6698,3.6704,3.6737,3.6748,3.6629,3.6629,3.6629,0,0,3.6467,3.6472,3.6487,3.6512,3.6519,3.6546,3.6509,3.6538,3.6559,3.653,3.657,3.6573,3.6587,3.6636,3.6657,3.664,3.6738,3.6704,3.671,3.6712,3.6743,3.6754,3.6764,3.6633,3.6632,3.6631,0,0,3.6534,3.6539,3.6574,3.6583,3.6596,3.6593,3.6602,3.661,3.6611,3.6651,3.6631,3.6656,3.6696,3.6708,3.6719,3.6795,3.6779,3.6802,3.6846,3.6877,3.6887,3.6895,3.6925,3.6935,3.6808,3.6808,3.6808,0,3.6568,3.6606,3.6594,3.6626,3.6639,3.6614,3.6652,3.6661,3.6681,3.6691,3.6672,3.6725,3.6732,3.6784,3.6803,3.6812,3.6824,3.6801,3.6886,3.6894,3.6902,3.693,3.6941,3.6811,3.6811,3.681,3.681,0,3.665,3.6678,3.6705,3.6725,3.6741,3.6775,3.677,3.6788,3.6779,3.6779,3.6822,3.683,3.6854,3.6866,3.6857,3.6919,3.6908,3.6888,3.6854,3.6916,3.6943,3.6953,3.6815,3.6814,3.6813,3.6813,0,0,3.6741,3.6756,3.6766,3.6777,3.679,3.6812,3.6847,3.6871,3.6888,3.6903,3.6933,3.697,3.6952,3.6965,3.6957,3.6985,3.7049,3.6962,3.6962,3.698,3.7121,3.7138,3.7151,3.7038,3.704,3.7041,3.7121,0,3.681,3.6869,3.6861,3.6918,3.6945,3.6924,3.6955,3.6968,3.697,3.6994,3.6996,3.7024,3.6997,3.7005,3.7031,3.7035,3.7077,3.7029,3.7068,3.707,3.7067,3.7164,3.7181,3.7255,3.7131,3.7133,3.7134,0,3.6897,3.6917,3.6977,3.699,3.7001,3.7028,3.7052,3.7075,3.709,3.709,3.7106,3.7095,3.7132,3.7097,3.715,3.7118,3.7134,3.7139,3.7141,3.7146,3.7107,3.7173,3.7278,3.7291,3.715,3.7148,3.7147,0,3.6961,3.7002,3.7044,3.7053,3.7068,3.7089,3.7097,3.711,3.7127,3.7148,3.7159,3.7184,3.7198,3.7219,3.7216,3.719,3.7271,3.7235,3.7274,3.7275,3.7293,3.7292,3.7404,3.73,3.73,3.73,3.73,0,3.704,3.7078,3.7074,3.71,3.7144,3.7135,3.7179,3.7184,3.7197,3.7225,3.7209,3.7236,3.7229,3.7257,3.7255,3.7302,3.7307,3.731,3.7309,3.7312,3.7313,3.7323,3.7319,3.7303,3.7302,3.7302,3.7301,0,3.7118,3.7116,3.7162,3.7173,3.7177,3.7209,3.722,3.7246,3.7247,3.7284,3.7292,3.7295,3.7327,3.7326,3.7362,3.7361,3.7419,3.7411,3.7414,3.7413,3.7453,3.745,3.7578,3.7596,3.7478,3.7479,3.748,0,3.7169,3.7199,3.7214,3.7232,3.7241,3.727,3.7287,3.728,3.7299,3.7321,3.7346,3.7377,3.7401,3.7455,3.7461,3.749,3.7484,3.7527,3.7488,3.7492,3.7488,3.7487,3.7491,3.7535,3.7536,3.7537,3.7538,0,3.7261,3.726,3.7284,3.731,3.7331,3.7351,3.737,3.7386,3.7382,3.7404,3.7437,3.7457,3.7495,3.7527,3.7556,3.7566,3.7553,3.755,3.7561,3.7566,3.7567,3.757,3.7437,3.7548,3.7547,3.7546,3.7545,3.7545,3.7329,3.7356,3.7371,3.7401,3.7414,3.7433,3.7459,3.7464,3.7491,3.7522,3.7517,3.7555,3.7574,3.761,3.7623,3.7654,3.7639,3.7655,3.7659,3.7663,3.7669,3.7561,3.7659,3.7659,3.7659,3.7658,3.7658,0,3.7422,3.7432,3.7459,3.7486,3.751,3.7495,3.7516,3.7537,3.7571,3.7589,3.7614,3.7654,3.7686,3.7696,3.7728,3.7751,3.7746,3.776,3.7759,3.7762,3.7679,3.7668,3.7764,3.7763,3.7763,3.7763,3.7763,3.7763,3.7474,3.7519,3.752,3.7573,3.7582,3.7619,3.7633,3.7651,3.7665,3.7711,3.7737,3.7744,3.7759,3.7793,3.7823,3.7825,3.7838,3.7855,3.7855,3.7778,3.7767,3.7757,3.7747,3.7857,3.7858,3.7936,3.7937,3.7937]},{"header":{"parameterUnit":"m.s-1","parameterCategory":1,"la1":30.2991,"la2":30.254,"lo1":-89.0895,"lo2":-89.0444,"dy":0.0017,"dx":0.0017,"nx":28,"ny":28,"refTime":"2023-10-14T21:00:00:Z","depth":0,"parameterNumber":3,"parameterNumberName":"V-component_of_WINDS"},"data":[0,0,0,0,0,0,0,0,0,0,0,0,0,0,0,0,0,0,0,0,0,0,0,0,0,0,0,0,0,0,0,0,0,0,0,0,0,0,0,0,0,0,0,0,0,0,0,0,0,0,0,0,0,0,0,0,0,0,-1.3012,-1.3012,0,-1.3059,-1.306,-1.306,-1.3094,-1.3094,-1.3095,-1.3095,-1.3143,-1.3144,-1.3145,0,0,0,0,0,0,0,0,0,0,0,0,0,-1.2952,-1.2953,-1.3012,-1.3012,-1.3013,-1.3059,-1.306,-1.306,-1.3094,-1.3094,-1.3095,-1.3095,-1.3143,-1.3144,-1.3145,0,0,0,0,0,0,0,0,0,0,0,0,0,-1.2986,-1.2953,-1.3012,-1.3035,-1.3038,-1.3059,-1.306,-1.3061,-1.3094,-1.3094,-1.3095,-1.3095,-1.3142,-1.3144,-1.3145,-1.3146,0,0,-1.315,-1.3151,0,0,0,0,0,0,0,0,-1.2984,-1.2989,-1.3031,-1.3034,-1.3037,-1.3071,-1.3056,-1.3089,-1.3094,-1.3073,-1.3095,-1.3095,-1.3119,-1.3122,-1.313,-1.3149,-1.3151,-1.315,-1.3151,-1.3152,-1.3152,0,0,0,0,0,0,0,-1.2982,-1.2987,-1.303,-1.3032,-1.3035,-1.3044,-1.3049,-1.3063,-1.3093,-1.3075,-1.3077,-1.3082,-1.312,-1.3129,-1.3132,-1.3151,-1.315,-1.3151,-1.3152,-1.3153,-1.3176,-1.3176,0,0,0,0,0,0,-1.2976,-1.2984,-1.3029,-1.3032,-1.3011,-1.3045,-1.3051,-1.306,-1.3093,-1.3098,-1.3082,-1.3084,-1.3126,-1.313,-1.3133,-1.3139,-1.3152,-1.3153,-1.3154,-1.3177,-1.3176,-1.3176,0,0,0,0,0,0,-1.2974,-1.2979,-1.3027,-1.3009,-1.3016,-1.3045,-1.3055,-1.306,-1.3069,-1.3098,-1.3104,-1.3085,-1.3126,-1.3131,-1.3144,-1.3141,-1.3154,-1.3155,-1.3177,-1.3177,-1.3176,-1.3148,0,0,0,0,0,0,-1.2972,-1.2979,-1.2979,-1.3009,-1.3017,-1.3036,-1.3055,-1.3061,-1.3071,-1.3074,-1.3103,-1.3108,-1.3127,-1.3141,-1.3145,-1.3143,-1.3156,-1.3177,-1.3177,-1.3176,-1.315,-1.3147,-1.3145,0,0,0,0,0,-1.297,-1.2968,-1.2979,-1.2984,-1.3017,-1.3036,-1.304,-1.3063,-1.3071,-1.3072,-1.3091,-1.3107,-1.3141,-1.3142,-1.3147,-1.3145,-1.3178,-1.3177,-1.3176,-1.3151,-1.3147,-1.3145,0,0,0,0,0,0,-1.2936,-1.2973,-1.2984,-1.2992,-1.3011,-1.3041,-1.3043,-1.3058,-1.3074,-1.3076,-1.3104,-1.311,-1.312,-1.3134,-1.3135,-1.315,-1.3161,-1.3161,-1.314,-1.3137,-1.3135,-1.3131,-1.3158,0,0,0,0,0,-1.293,-1.2942,-1.2973,-1.2976,-1.2985,-1.3013,-1.3021,-1.3037,-1.3058,-1.3065,-1.3086,-1.3105,-1.312,-1.3129,-1.3145,-1.3152,-1.316,-1.3154,-1.3151,-1.3149,-1.3149,-1.3156,-1.3154,-1.3174,-1.3174,-1.3174,0,0,-1.2916,-1.2938,-1.2943,-1.297,-1.2987,-1.2999,-1.3019,-1.303,-1.304,-1.3067,-1.3081,-1.3096,-1.312,-1.313,-1.3136,-1.3142,-1.3146,-1.3148,-1.3146,-1.3147,-1.3155,-1.3153,-1.3152,-1.3173,-1.3174,-1.3174,0,0,-1.2899,-1.2915,-1.2921,-1.2938,-1.2963,-1.2981,-1.2983,-1.3012,-1.3024,-1.3038,-1.3059,-1.3071,-1.3096,-1.3113,-1.3125,-1.3116,-1.3131,-1.312,-1.3107,-1.3114,-1.3113,-1.3111,-1.311,-1.3109,-1.312,-1.312,-1.312,0,-1.2879,-1.2897,-1.2922,-1.2933,-1.2946,-1.2972,-1.2979,-1.2994,-1.3022,-1.303,-1.3037,-1.3071,-1.3089,-1.3105,-1.3103,-1.3111,-1.3115,-1.3117,-1.3111,-1.311,-1.3109,-1.3108,-1.3107,-1.3119,-1.3119,-1.3119,-1.3119,0,-1.2873,-1.2886,-1.2888,-1.2916,-1.2928,-1.2937,-1.2964,-1.2974,-1.299,-1.3008,-1.3023,-1.3045,-1.3067,-1.3072,-1.3087,-1.3091,-1.3094,-1.3106,-1.3118,-1.3105,-1.3105,-1.3105,-1.3117,-1.3117,-1.3118,-1.3118,0,0,-1.2833,-1.2877,-1.2877,-1.2891,-1.2922,-1.2933,-1.2944,-1.2966,-1.2974,-1.2993,-1.3004,-1.3026,-1.3038,-1.3051,-1.3069,-1.3074,-1.3069,-1.3086,-1.3087,-1.3083,-1.3077,-1.3068,-1.3067,-1.3079,-1.3079,-1.3079,-1.3075,0,-1.2821,-1.2842,-1.2866,-1.2879,-1.2892,-1.2919,-1.2929,-1.2949,-1.2967,-1.2982,-1.3002,-1.3018,-1.3031,-1.304,-1.3047,-1.3068,-1.3068,-1.3068,-1.3091,-1.3091,-1.3084,-1.3067,-1.3057,-1.3052,-1.3075,-1.3075,-1.3075,0,-1.2808,-1.2828,-1.2843,-1.2874,-1.2881,-1.2889,-1.2913,-1.2926,-1.295,-1.2963,-1.2979,-1.2998,-1.3013,-1.3024,-1.3045,-1.3045,-1.3055,-1.3068,-1.3068,-1.3071,-1.3082,-1.307,-1.3051,-1.305,-1.3074,-1.3074,-1.3074,0,-1.278,-1.281,-1.2823,-1.2834,-1.2871,-1.2877,-1.2892,-1.2917,-1.293,-1.295,-1.2959,-1.298,-1.2992,-1.3009,-1.3035,-1.304,-1.3054,-1.3066,-1.3066,-1.3065,-1.3067,-1.3067,-1.305,-1.3073,-1.3073,-1.3073,-1.3073,0,-1.2764,-1.2772,-1.2811,-1.2819,-1.283,-1.2858,-1.2868,-1.2886,-1.2909,-1.2922,-1.2946,-1.2958,-1.299,-1.3006,-1.3026,-1.3041,-1.3046,-1.3058,-1.3063,-1.3056,-1.3054,-1.3063,-1.3064,-1.3073,-1.3073,-1.3073,-1.3073,0,-1.2734,-1.276,-1.2776,-1.2811,-1.282,-1.2826,-1.2856,-1.2866,-1.2886,-1.2902,-1.2908,-1.2939,-1.296,-1.2986,-1.3015,-1.3028,-1.3042,-1.3049,-1.3034,-1.3037,-1.3035,-1.3036,-1.3024,-1.3025,-1.3046,-1.3046,-1.3046,0,-1.2722,-1.2729,-1.2765,-1.2775,-1.2791,-1.2807,-1.2821,-1.2849,-1.2862,-1.2892,-1.2899,-1.2921,-1.294,-1.2972,-1.2998,-1.3021,-1.303,-1.3024,-1.3033,-1.3026,-1.3031,-1.303,-1.3032,-1.3022,-1.3021,-1.3021,-1.3021,0,-1.2699,-1.2712,-1.273,-1.2753,-1.2769,-1.2789,-1.2809,-1.2817,-1.285,-1.2864,-1.2885,-1.29,-1.2931,-1.2953,-1.298,-1.2997,-1.3015,-1.3018,-1.3019,-1.3012,-1.3003,-1.3009,-1.3028,-1.3018,-1.3018,-1.3018,-1.3019,-1.3019,-1.2678,-1.2687,-1.2714,-1.2734,-1.2753,-1.2772,-1.2784,-1.2806,-1.2824,-1.2851,-1.2867,-1.2889,-1.2916,-1.2953,-1.297,-1.2988,-1.2994,-1.2996,-1.2997,-1.2997,-1.2995,-1.3,-1.2993,-1.2993,-1.2993,-1.2993,-1.2993,0,-1.2657,-1.2677,-1.2695,-1.2724,-1.274,-1.2756,-1.2781,-1.2794,-1.2812,-1.2835,-1.2855,-1.2881,-1.2903,-1.2932,-1.2957,-1.2966,-1.2975,-1.2971,-1.2971,-1.2975,-1.2987,-1.2984,-1.2964,-1.2964,-1.2964,-1.2964,-1.2964,-1.2964,-1.2648,-1.2664,-1.2681,-1.2707,-1.2727,-1.2748,-1.2761,-1.278,-1.2799,-1.2827,-1.2846,-1.2865,-1.2891,-1.2918,-1.294,-1.2948,-1.2957,-1.2951,-1.2961,-1.2972,-1.2974,-1.2977,-1.2974,-1.2952,-1.2952,-1.2949,-1.2949,-1.2949]}]]